Погода Ксевкияна неделю

Аура, Мальта

18 - 24 июля
  • 18июля
    Сегодня
    +27°
    +31°
    Ясно и безоблачно
    ВремяПогодаТемператураВлажностьДавлениеВетер, м/сВероятность осадков
    02:00Ясно и безоблачно+28°C85 %756 мм1.5 м/с1 %
    05:00Ясно и безоблачно+27°C85 %756 мм1.3 м/с1 %
    08:00Ясно и безоблачно+29°C85 %757 мм1.8 м/с1 %
    11:00Ясно и безоблачно+29°C86 %757 мм0.4 м/с1 %
    14:00Ясно и безоблачно+30°C72 %757 мм1.5 м/с1 %
    17:00Ясно и безоблачно+31°C70 %756 мм3.7 м/с1 %
    20:00Ясно и безоблачно+30°C69 %757 мм3.1 м/с1 %
    23:00Ясно и безоблачно+29°C76 %757 мм2.5 м/с1 %
  • 19июля
    Пятница
    +27°
    +31°
    Ясно и безоблачно
    ВремяПогодаТемператураВлажностьДавлениеВетер, м/сВероятность осадков
    02:00Ясно и безоблачно+28°C80 %756 мм2.5 м/с2 %
    05:00Ясно и безоблачно+27°C87 %756 мм3.8 м/с2 %
    08:00Ясно и безоблачно+29°C88 %756 мм2.8 м/с2 %
    11:00Ясно и безоблачно+29°C88 %757 мм1.2 м/с2 %
    14:00Ясно и безоблачно+29°C87 %756 мм0.5 м/с2 %
    17:00Ясно и безоблачно+30°C78 %755 мм2.4 м/с2 %
    20:00Ясно и безоблачно+30°C77 %755 мм2.2 м/с2 %
    23:00Ясно и безоблачно+29°C77 %755 мм2.8 м/с2 %
  • 20июля
    Суббота
    +26°
    +30°
    Ясно и безоблачно
    ВремяПогодаТемператураВлажностьДавлениеВетер, м/сВероятность осадков
    02:00Ясно и безоблачно+28°C83 %754 мм4.3 м/с2 %
    05:00Ясно и безоблачно+27°C87 %753 мм5.4 м/с2 %
    08:00Ясно и безоблачно+28°C95 %753 мм4.5 м/с2 %
    11:00Ясно и безоблачно+29°C93 %754 мм3.6 м/с2 %
    14:00Ясно и безоблачно+29°C87 %753 мм2.8 м/с2 %
    17:00Ясно и безоблачно+30°C75 %753 мм5.0 м/с2 %
    20:00Ясно и безоблачно+29°C81 %752 мм4.4 м/с2 %
    23:00Ясно и безоблачно+28°C78 %753 мм3.4 м/с2 %
  • 21июля
    Воскресенье
    +26°
    +30°
    Ясно и безоблачно
    ВремяПогодаТемператураВлажностьДавлениеВетер, м/сВероятность осадков
    02:00Ясно и безоблачно+27°C82 %752 мм3.8 м/с2 %
    05:00Ясно и безоблачно+27°C85 %752 мм3.4 м/с2 %
    08:00Ясно и безоблачно+29°C89 %753 мм2.6 м/с2 %
    11:00Ясно и безоблачно+29°C88 %754 мм4.3 м/с2 %
    14:00Ясно и безоблачно+28°C86 %753 мм2.4 м/с2 %
    17:00Ясно и безоблачно+30°C80 %753 мм5.9 м/с2 %
    20:00Ясно и безоблачно+29°C82 %753 мм2.1 м/с2 %
    23:00Ясно и безоблачно+28°C83 %753 мм2.7 м/с2 %
  • 22июля
    Понедельник
    +24°
    +29°
    Ясно и безоблачно
    ВремяПогодаТемператураВлажностьДавлениеВетер, м/сВероятность осадков
    02:00Ясно и безоблачно+27°C86 %752 мм3.5 м/с2 %
    05:00Ясно и безоблачно+27°C88 %753 мм3.4 м/с2 %
    08:00Ясно и безоблачно+28°C84 %753 мм5.9 м/с2 %
    11:00Ясно и безоблачно+29°C85 %754 мм7.7 м/с2 %
    14:00Ясно и безоблачно+29°C87 %753 мм9.0 м/с2 %
    17:00Ясно и безоблачно+28°C83 %753 мм10.2 м/с2 %
    20:00Ясно и безоблачно+27°C79 %753 мм11.3 м/с2 %
    23:00Ясно и безоблачно+26°C86 %754 мм10.9 м/с2 %
Мы используем cookies
Соглашаюсь